Regional Weather Roundup
Issued by NWS

Home | Current Version | Previous Version | Text Only | Print | Product List | Glossary On
Versions: 1 2 3 4 5 6 7 8 9 10 11 12 13 14 15 16 17 18 19 20 21 22 23 24 25 26 27
000
ASUS45 KBOI 031110
RWRID

IDAHO REGIONAL WEATHER ROUNDUP
NATIONAL WEATHER SERVICE BOISE ID
500 AM MDT TUE AUG 03 2021

NOTE: "FAIR" INDICATES FEW OR NO CLOUDS BELOW 12000 FEET
WITH NO SIGNIFICANT WEATHER AND/OR OBSTRUCTIONS TO VISIBILITY

IDZ012-014-031200-
SOUTHWEST IDAHO


CITY           SKY/WX    TMP DP  RH WIND       PRES   REMARKS
BOISE          CLEAR     70  59  68 SW5       30.15R
CALDWELL       CLEAR     70  61  73 E9        30.13R
MOUNTAIN HOME  CLEAR     66 N/A N/A S9        30.15F
$$

IDZ016-017-031200-
SOUTHCENTRAL IDAHO


CITY           SKY/WX    TMP DP  RH WIND       PRES   REMARKS
BURLEY           N/A    N/A N/A N/A MISG      30.24S
JEROME         CLEAR     62  57  83 E16       30.23F
TWIN FALLS     CLEAR     59  55  87 CALM      30.24S
$$

IDZ019>023-031200-
SOUTHEAST IDAHO


CITY           SKY/WX    TMP DP  RH WIND       PRES   REMARKS
IDAHO FALLS    CLEAR     57  56  96 CALM      30.31S FOG
POCATELLO      CLEAR     52  51  97 E3        30.28F
REXBURG        CLEAR     58  56  93 S3        30.31R
$$

IDZ006-010-011-018-031-032-031200-
CENTRAL IDAHO MOUNTAINS


CITY           SKY/WX    TMP DP  RH WIND       PRES   REMARKS
MCCALL         PTCLDY    57  49  74 CALM      30.27S
HAILEY         CLEAR     55  50  82 NW9       30.35F
STANLEY          N/A     45  44  97 S5        30.41F
SALMON         PTCLDY    58  56  93 CALM      30.30S
CHALLIS        CLEAR     54  54 100 W3        30.34S FOG
$$

IDZ002-004-006-007-026-031200-
NORTHERN IDAHO


CITY           SKY/WX    TMP DP  RH WIND       PRES   REMARKS
LEWISTON       CLEAR     74  49  41 CALM      30.06R
LOWELL           N/A     67  65  93 CALM      30.13S
COEUR D`ALENE  CLEAR     68  57  68 NE6       30.11F HAZE
MULLAN PASS    CLOUDY    63  49  60 N3        30.33S HAZE
$$



USA.gov is the U.S. government's official web portal to all federal, state and local government web resources and services.